Wetterdaten: aktuell Mittwoch, 15.08.2018 12:38
Datum Zeit Temp. 2m Temp. 5cm Temp. -10cm Temp. 2m alt Feuchte A. Luftdruck Regen Wind Richtung Richtung Taupunkt Windchill Windben
15.08.2018 12:38 22,1 C 25,3 C 21,0 C 22,7 C 61 % 1021,2 hPa 0,0 l/m 5,3 km/h (1 Bft) W 270 14,2 C 22,1 C 3,3 km/h (1 Bft)
15.08.2018 12:36 21,8 C 24,0 C 21,0 C 22,7 C 60 % 1021,2 hPa 0,0 l/m 5,3 km/h (1 Bft) N 360 13,7 C 21,8 C 4,2 km/h (1 Bft)
15.08.2018 12:34 21,8 C 23,6 C 21,0 C 22,7 C 60 % 1021,2 hPa 0,0 l/m 5,5 km/h (1 Bft) NO 45 13,7 C 21,8 C 6,2 km/h (2 Bft)
15.08.2018 12:32 21,7 C 23,0 C 21,0 C 22,7 C 61 % 1021,2 hPa 0,0 l/m 5,3 km/h (1 Bft) N 360 13,8 C 21,7 C 13,3 km/h (3 Bft)
15.08.2018 12:30 21,7 C 22,7 C 21,0 C 22,8 C 61 % 1021,2 hPa 0,0 l/m 5,5 km/h (1 Bft) N-NO 22 13,8 C 21,7 C 10,4 km/h (2 Bft)
15.08.2018 12:28 21,7 C 22,4 C 21,0 C 22,8 C 61 % 1021,2 hPa 0,0 l/m 5,0 km/h (1 Bft) N 360 13,8 C 21,7 C 13,3 km/h (3 Bft)
15.08.2018 12:26 21,7 C 22,4 C 21,0 C 22,9 C 61 % 1021,5 hPa 0,0 l/m 5,3 km/h (1 Bft) NW 315 13,8 C 21,7 C 8,1 km/h (2 Bft)
15.08.2018 12:24 21,7 C 22,4 C 21,0 C 23,0 C 61 % 1021,5 hPa 0,0 l/m 4,7 km/h (1 Bft) O-NO 67 13,8 C 21,7 C 8,5 km/h (2 Bft)
15.08.2018 12:22 21,7 C 22,7 C 21,0 C 23,0 C 61 % 1021,5 hPa 0,0 l/m 4,8 km/h (1 Bft) N 360 13,8 C 21,7 C 3,1 km/h (1 Bft)
15.08.2018 12:20 21,8 C 22,6 C 21,0 C 23,1 C 61 % 1021,5 hPa 0,0 l/m 5,0 km/h (1 Bft) NO 45 13,9 C 21,8 C 11,8 km/h (2 Bft)
15.08.2018 12:18 21,8 C 22,6 C 21,0 C 23,2 C 61 % 1021,5 hPa 0,0 l/m 4,5 km/h (1 Bft) N-NW 337 13,9 C 21,8 C 2,7 km/h (1 Bft)
15.08.2018 12:16 21,9 C 22,5 C 20,9 C 23,2 C 60 % 1021,5 hPa 0,0 l/m 4,5 km/h (1 Bft) W-SW 247 13,8 C 21,9 C 11,4 km/h (2 Bft)
15.08.2018 12:14 22,0 C 22,6 C 20,9 C 23,2 C 60 % 1021,5 hPa 0,0 l/m 4,3 km/h (1 Bft) NO 45 13,9 C 22,0 C 4,4 km/h (1 Bft)
15.08.2018 12:12 22,0 C 22,8 C 20,7 C 23,2 C 60 % 1021,5 hPa 0,0 l/m 4,5 km/h (1 Bft) O 90 13,9 C 22,0 C 7,7 km/h (2 Bft)
15.08.2018 12:10 22,5 C 24,4 C 20,7 C 23,4 C 60 % 1021,5 hPa 0,0 l/m 5,6 km/h (1 Bft) N 360 14,3 C 22,5 C 11,0 km/h (2 Bft)
15.08.2018 12:08 22,5 C 24,4 C 20,7 C 23,4 C 60 % 1021,5 hPa 0,0 l/m 5,6 km/h (1 Bft) N 360 14,3 C 22,5 C 11,0 km/h (2 Bft)
15.08.2018 12:06 22,5 C 24,4 C 20,7 C 23,4 C 60 % 1021,1 hPa 0,0 l/m 5,6 km/h (1 Bft) N 360 14,3 C 22,5 C 11,0 km/h (2 Bft)
15.08.2018 12:04 22,5 C 24,4 C 20,7 C 23,4 C 60 % 1021,1 hPa 0,0 l/m 5,6 km/h (1 Bft) N 360 14,3 C 22,5 C 11,0 km/h (2 Bft)
15.08.2018 12:02 22,5 C 24,4 C 20,7 C 23,4 C 60 % 1021,1 hPa 0,0 l/m 5,6 km/h (1 Bft) N 360 14,3 C 22,5 C 11,0 km/h (2 Bft)
15.08.2018 12:00 22,5 C 24,8 C 20,7 C 23,4 C 60 % 1021,1 hPa 0,0 l/m 5,6 km/h (1 Bft) O-SO 112 14,3 C 22,5 C 11,0 km/h (2 Bft)
15.08.2018 11:58 22,5 C 27,0 C 20,7 C 23,2 C 60 % 1021,1 hPa 0,0 l/m 4,3 km/h (1 Bft) N-NW 337 14,3 C 22,5 C 7,7 km/h (2 Bft)
15.08.2018 11:56 22,6 C 29,4 C 20,7 C 23,2 C 60 % 1021,1 hPa 0,0 l/m 5,0 km/h (1 Bft) W-NW 292 14,4 C 22,6 C 9,1 km/h (2 Bft)
15.08.2018 11:54 22,3 C 27,2 C 20,7 C 23,2 C 60 % 1021,1 hPa 0,0 l/m 4,5 km/h (1 Bft) NW 315 14,2 C 22,3 C 15,6 km/h (3 Bft)
15.08.2018 11:52 22,4 C 26,9 C 20,7 C 23,2 C 61 % 1021,1 hPa 0,0 l/m 3,7 km/h (1 Bft) W-NW 292 14,5 C 22,4 C 5,2 km/h (1 Bft)
15.08.2018 11:50 22,4 C 28,5 C 20,6 C 23,1 C 61 % 1021,1 hPa 0,0 l/m 4,2 km/h (1 Bft) NW 315 14,5 C 22,4 C 11,2 km/h (2 Bft)
15.08.2018 11:48 22,6 C 29,0 C 20,6 C 22,9 C 62 % 1021,1 hPa 0,0 l/m 5,0 km/h (1 Bft) W-NW 292 14,9 C 22,6 C 7,9 km/h (2 Bft)
15.08.2018 11:46 22,6 C 31,3 C 20,6 C 22,7 C 62 % 1021,6 hPa 0,0 l/m 5,5 km/h (1 Bft) NW 315 14,9 C 22,6 C 7,9 km/h (2 Bft)
15.08.2018 11:44 22,4 C 31,5 C 20,6 C 22,7 C 62 % 1021,6 hPa 0,0 l/m 5,5 km/h (1 Bft) N-NO 22 14,8 C 22,4 C 2,5 km/h (1 Bft)
15.08.2018 11:42 22,0 C 32,0 C 20,6 C 22,5 C 62 % 1021,6 hPa 0,0 l/m 5,8 km/h (2 Bft) W-NW 292 14,4 C 22,0 C 0,0 km/h (0 Bft)
15.08.2018 11:40 21,7 C 31,6 C 20,5 C 22,3 C 62 % 1021,6 hPa 0,0 l/m 5,5 km/h (1 Bft) W-NW 292 14,1 C 21,7 C 11,6 km/h (2 Bft)
15.08.2018 11:38 21,2 C 28,3 C 20,5 C 22,2 C 64 % 1021,6 hPa 0,0 l/m 4,5 km/h (1 Bft) NO 45 14,1 C 21,2 C 3,7 km/h (1 Bft)
15.08.2018 11:36 21,2 C 25,2 C 20,5 C 22,1 C 64 % 1021,6 hPa 0,0 l/m 3,4 km/h (1 Bft) W-NW 292 14,1 C 21,2 C 7,5 km/h (2 Bft)
15.08.2018 11:34 21,0 C 25,4 C 20,5 C 22,1 C 66 % 1021,6 hPa 0,0 l/m 2,7 km/h (1 Bft) N 360 14,4 C 21,0 C 7,5 km/h (2 Bft)
15.08.2018 11:32 20,9 C 22,5 C 20,5 C 22,0 C 65 % 1021,6 hPa 0,0 l/m 1,8 km/h (1 Bft) N-NO 22 14,1 C 20,9 C 6,0 km/h (2 Bft)
15.08.2018 11:30 20,9 C 22,1 C 20,5 C 22,1 C 65 % 1021,6 hPa 0,0 l/m 1,4 km/h (1 Bft) W-NW 292 14,1 C 20,9 C 5,6 km/h (1 Bft)
15.08.2018 11:28 20,9 C 21,9 C 20,5 C 22,1 C 65 % 1021,6 hPa 0,0 l/m 0,8 km/h (0 Bft) W-NW 292 14,1 C 20,9 C 2,1 km/h (1 Bft)
15.08.2018 11:26 21,0 C 21,8 C 20,5 C 22,1 C 63 % 1021,6 hPa 0,0 l/m 0,8 km/h (0 Bft) NO 45 13,7 C 21,0 C 4,1 km/h (1 Bft)
15.08.2018 11:24 21,0 C 21,9 C 20,5 C 22,2 C 63 % 1021,6 hPa 0,0 l/m 1,3 km/h (1 Bft) W-NW 292 13,7 C 21,0 C 1,9 km/h (1 Bft)
15.08.2018 11:22 21,0 C 21,9 C 20,5 C 22,2 C 63 % 1021,6 hPa 0,0 l/m 2,1 km/h (1 Bft) N-NO 22 13,7 C 21,0 C 0,0 km/h (0 Bft)
15.08.2018 11:20 21,0 C 22,1 C 20,5 C 22,2 C 63 % 1021,6 hPa 0,0 l/m 3,2 km/h (1 Bft) N 360 13,7 C 21,0 C 0,0 km/h (0 Bft)
15.08.2018 11:18 21,0 C 22,3 C 20,5 C 22,2 C 63 % 1021,6 hPa 0,0 l/m 4,0 km/h (1 Bft) S-SO 157 13,7 C 21,0 C 0,0 km/h (0 Bft)
15.08.2018 11:16 21,1 C 23,2 C 20,5 C 22,2 C 63 % 1021,6 hPa 0,0 l/m 4,5 km/h (1 Bft) N-NO 22 13,8 C 21,1 C 2,5 km/h (1 Bft)
15.08.2018 11:14 21,1 C 23,8 C 20,5 C 22,2 C 63 % 1021,6 hPa 0,0 l/m 4,5 km/h (1 Bft) O-NO 67 13,8 C 21,1 C 7,0 km/h (2 Bft)
15.08.2018 11:12 21,1 C 23,9 C 20,4 C 22,2 C 63 % 1021,6 hPa 0,0 l/m 4,2 km/h (1 Bft) NO 45 13,8 C 21,1 C 7,1 km/h (2 Bft)
15.08.2018 11:10 21,0 C 24,3 C 20,4 C 22,2 C 63 % 1021,6 hPa 0,0 l/m 4,5 km/h (1 Bft) W 270 13,7 C 21,0 C 7,3 km/h (2 Bft)
15.08.2018 11:08 21,0 C 24,3 C 20,4 C 22,2 C 63 % 1021,6 hPa 0,0 l/m 3,7 km/h (1 Bft) O 90 13,7 C 21,0 C 5,8 km/h (2 Bft)
15.08.2018 11:06 21,0 C 24,0 C 20,4 C 22,2 C 63 % 1021,4 hPa 0,0 l/m 3,2 km/h (1 Bft) NW 315 13,7 C 21,0 C 5,4 km/h (1 Bft)
15.08.2018 11:04 21,1 C 23,3 C 20,4 C 22,2 C 63 % 1021,4 hPa 0,0 l/m 3,4 km/h (1 Bft) W-SW 247 13,8 C 21,1 C 3,1 km/h (1 Bft)
15.08.2018 11:02 21,1 C 23,4 C 20,4 C 22,2 C 63 % 1021,4 hPa 0,0 l/m 3,1 km/h (1 Bft) N-NO 22 13,8 C 21,1 C 6,4 km/h (2 Bft)
15.08.2018 11:00 21,1 C 23,7 C 20,4 C 22,1 C 63 % 1021,4 hPa 0,0 l/m 2,6 km/h (1 Bft) NW 315 13,8 C 21,1 C 12,2 km/h (2 Bft)
15.08.2018 10:58 21,2 C 24,4 C 20,4 C 22,1 C 62 % 1021,4 hPa 0,0 l/m 3,7 km/h (1 Bft) W-NW 292 13,6 C 21,2 C 24,5 km/h (4 Bft)
15.08.2018 10:56 21,2 C 26,2 C 20,4 C 22,1 C 62 % 1021,4 hPa 0,0 l/m 5,3 km/h (1 Bft) N 360 13,6 C 21,2 C 3,9 km/h (1 Bft)
15.08.2018 10:54 21,2 C 26,8 C 20,4 C 22,0 C 62 % 1021,4 hPa 0,0 l/m 5,3 km/h (1 Bft) N 360 13,6 C 21,2 C 5,2 km/h (1 Bft)
15.08.2018 10:52 21,2 C 27,8 C 20,4 C 21,8 C 63 % 1021,4 hPa 0,0 l/m 5,8 km/h (2 Bft) NW 315 13,9 C 21,2 C 4,1 km/h (1 Bft)
15.08.2018 10:50 21,2 C 29,1 C 20,4 C 21,8 C 63 % 1021,4 hPa 0,0 l/m 6,1 km/h (2 Bft) N-NW 337 13,9 C 21,2 C 14,1 km/h (3 Bft)
15.08.2018 10:48 21,1 C 28,0 C 20,4 C 21,7 C 63 % 1021,4 hPa 0,0 l/m 4,8 km/h (1 Bft) SW 225 13,8 C 21,1 C 24,5 km/h (4 Bft)
15.08.2018 10:46 21,0 C 27,1 C 20,3 C 21,5 C 63 % 1021,6 hPa 0,0 l/m 3,1 km/h (1 Bft) N 360 13,7 C 21,0 C 18,2 km/h (3 Bft)
15.08.2018 10:44 20,7 C 26,2 C 20,4 C 21,5 C 65 % 1021,6 hPa 0,0 l/m 2,3 km/h (1 Bft) NW 315 13,9 C 20,7 C 6,4 km/h (2 Bft)
15.08.2018 10:42 20,7 C 24,4 C 20,4 C 21,4 C 65 % 1021,6 hPa 0,0 l/m 2,6 km/h (1 Bft) O-NO 67 13,9 C 20,7 C 6,4 km/h (2 Bft)
15.08.2018 10:40 20,8 C 24,4 C 20,4 C 21,3 C 65 % 1021,6 hPa 0,0 l/m 2,7 km/h (1 Bft) N-NO 22 14,0 C 20,8 C 6,4 km/h (2 Bft)
15.08.2018 10:38 20,8 C 26,5 C 20,4 C 21,2 C 66 % 1021,6 hPa 0,0 l/m 3,2 km/h (1 Bft) NW 315 14,2 C 20,8 C 3,5 km/h (1 Bft)
15.08.2018 10:36 20,7 C 26,5 C 20,4 C 21,1 C 66 % 1021,6 hPa 0,0 l/m 3,9 km/h (1 Bft) NW 315 14,1 C 20,7 C 0,0 km/h (0 Bft)
15.08.2018 10:35 20,7 C 26,7 C 20,4 C 21,1 C 66 % 1021,6 hPa 0,0 l/m 4,3 km/h (1 Bft) O-NO 67 14,1 C 20,7 C 8,3 km/h (2 Bft)
15.08.2018 10:34 20,7 C 26,7 C 20,4 C 21,1 C 66 % 1021,6 hPa 0,0 l/m 4,3 km/h (1 Bft) O-NO 67 14,1 C 20,7 C 8,3 km/h (2 Bft)
15.08.2018 10:30 20,3 C 24,2 C 20,4 C 20,9 C 66 % 1021,6 hPa 0,0 l/m 4,3 km/h (1 Bft) O 90 13,7 C 20,3 C 4,8 km/h (1 Bft)
15.08.2018 10:28 20,3 C 23,4 C 20,4 C 20,9 C 66 % 1021,6 hPa 0,0 l/m 4,7 km/h (1 Bft) NO 45 13,7 C 20,3 C 8,3 km/h (2 Bft)
15.08.2018 10:26 20,2 C 22,8 C 20,4 C 20,7 C 66 % 1021,6 hPa 0,0 l/m 4,3 km/h (1 Bft) NO 45 13,6 C 20,2 C 7,5 km/h (2 Bft)
15.08.2018 10:24 20,2 C 22,3 C 20,3 C 20,7 C 66 % 1021,6 hPa 0,0 l/m 3,4 km/h (1 Bft) O 90 13,6 C 20,2 C 3,5 km/h (1 Bft)
15.08.2018 10:22 20,2 C 21,8 C 20,3 C 20,7 C 66 % 1021,6 hPa 0,0 l/m 2,7 km/h (1 Bft) NO 45 13,6 C 20,2 C 7,7 km/h (2 Bft)
15.08.2018 10:20 20,1 C 21,6 C 20,3 C 20,7 C 66 % 1021,6 hPa 0,0 l/m 2,7 km/h (1 Bft) O 90 13,5 C 20,1 C 6,0 km/h (2 Bft)
15.08.2018 10:18 20,1 C 21,6 C 20,3 C 20,7 C 67 % 1021,6 hPa 0,0 l/m 2,3 km/h (1 Bft) NO 45 13,8 C 20,1 C 6,2 km/h (2 Bft)
15.08.2018 10:16 20,1 C 21,6 C 20,3 C 20,6 C 66 % 1021,6 hPa 0,0 l/m 2,4 km/h (1 Bft) N-NO 22 13,5 C 20,1 C 0,0 km/h (0 Bft)
15.08.2018 10:14 20,0 C 21,6 C 20,3 C 20,6 C 67 % 1021,6 hPa 0,0 l/m 2,6 km/h (1 Bft) N-NO 22 13,7 C 20,0 C 3,5 km/h (1 Bft)
15.08.2018 10:12 20,0 C 21,5 C 20,3 C 20,5 C 67 % 1021,6 hPa 0,0 l/m 2,9 km/h (1 Bft) N-NO 22 13,7 C 20,0 C 0,0 km/h (0 Bft)
15.08.2018 10:10 20,0 C 21,7 C 20,3 C 20,5 C 67 % 1021,6 hPa 0,0 l/m 3,1 km/h (1 Bft) N-NW 337 13,7 C 20,0 C 3,3 km/h (1 Bft)
15.08.2018 10:08 20,0 C 21,4 C 20,3 C 20,5 C 67 % 1021,6 hPa 0,0 l/m 3,1 km/h (1 Bft) N-NO 22 13,7 C 20,0 C 3,9 km/h (1 Bft)
15.08.2018 10:06 20,0 C 21,4 C 20,3 C 20,5 C 66 % 1021,5 hPa 0,0 l/m 3,1 km/h (1 Bft) N-NO 22 13,4 C 20,0 C 12,9 km/h (3 Bft)
15.08.2018 10:04 20,0 C 21,1 C 20,3 C 20,5 C 66 % 1021,5 hPa 0,0 l/m 2,9 km/h (1 Bft) O 90 13,4 C 20,0 C 3,9 km/h (1 Bft)
15.08.2018 10:02 20,0 C 20,8 C 20,3 C 20,5 C 66 % 1021,5 hPa 0,0 l/m 3,5 km/h (1 Bft) N-NO 22 13,4 C 20,0 C 4,8 km/h (1 Bft)
15.08.2018 10:00 20,0 C 20,8 C 20,3 C 20,5 C 66 % 1021,5 hPa 0,0 l/m 3,7 km/h (1 Bft) N 360 13,4 C 20,0 C 4,8 km/h (1 Bft)
15.08.2018 09:58 20,0 C 20,6 C 20,3 C 20,5 C 66 % 1021,5 hPa 0,0 l/m 3,7 km/h (1 Bft) N-NO 22 13,4 C 20,0 C 5,2 km/h (1 Bft)
15.08.2018 09:56 20,0 C 20,8 C 20,3 C 20,5 C 66 % 1021,5 hPa 0,0 l/m 3,4 km/h (1 Bft) W-NW 292 13,4 C 20,0 C 0,0 km/h (0 Bft)
15.08.2018 09:55 20,0 C 20,9 C 20,3 C 20,5 C 66 % 1021,5 hPa 0,0 l/m 3,5 km/h (1 Bft) N-NO 22 13,4 C 20,0 C 4,8 km/h (1 Bft)
15.08.2018 09:54 20,0 C 20,9 C 20,3 C 20,5 C 66 % 1021,5 hPa 0,0 l/m 3,5 km/h (1 Bft) N-NO 22 13,4 C 20,0 C 4,8 km/h (1 Bft)
15.08.2018 09:50 20,0 C 21,9 C 20,3 C 20,5 C 66 % 1021,5 hPa 0,0 l/m 3,5 km/h (1 Bft) N-NO 22 13,4 C 20,0 C 5,0 km/h (1 Bft)
15.08.2018 09:48 20,0 C 22,0 C 20,3 C 20,4 C 67 % 1021,5 hPa 0,0 l/m 3,9 km/h (1 Bft) N-NO 22 13,7 C 20,0 C 8,3 km/h (2 Bft)
15.08.2018 09:46 20,0 C 22,2 C 20,3 C 20,4 C 67 % 1021,6 hPa 0,0 l/m 4,3 km/h (1 Bft) N 360 13,7 C 20,0 C 4,8 km/h (1 Bft)
15.08.2018 09:44 20,0 C 22,2 C 20,3 C 20,3 C 67 % 1021,6 hPa 0,0 l/m 4,8 km/h (1 Bft) NW 315 13,7 C 20,0 C 2,7 km/h (1 Bft)
15.08.2018 09:42 20,0 C 22,1 C 20,3 C 20,3 C 67 % 1021,6 hPa 0,0 l/m 4,7 km/h (1 Bft) NO 45 13,7 C 20,0 C 5,8 km/h (2 Bft)
15.08.2018 09:40 19,9 C 21,9 C 20,3 C 20,3 C 67 % 1021,6 hPa 0,0 l/m 4,2 km/h (1 Bft) O 90 13,6 C 19,9 C 9,8 km/h (2 Bft)
15.08.2018 09:38 19,9 C 21,3 C 20,3 C 20,3 C 67 % 1021,6 hPa 0,0 l/m 3,9 km/h (1 Bft) NO 45 13,6 C 19,9 C 5,8 km/h (2 Bft)
15.08.2018 09:36 19,8 C 21,2 C 20,2 C 20,2 C 68 % 1021,6 hPa 0,0 l/m 3,7 km/h (1 Bft) NW 315 13,7 C 19,8 C 7,5 km/h (2 Bft)
15.08.2018 09:34 19,8 C 21,1 C 20,2 C 20,1 C 67 % 1021,6 hPa 0,0 l/m 3,2 km/h (1 Bft) W 270 13,5 C 19,8 C 8,3 km/h (2 Bft)
15.08.2018 09:32 19,8 C 21,2 C 20,2 C 20,1 C 68 % 1021,6 hPa 0,0 l/m 2,7 km/h (1 Bft) NW 315 13,7 C 19,8 C 2,7 km/h (1 Bft)
15.08.2018 09:30 19,8 C 21,2 C 20,2 C 20,1 C 67 % 1021,6 hPa 0,0 l/m 3,2 km/h (1 Bft) N 360 13,5 C 19,8 C 0,0 km/h (0 Bft)
15.08.2018 09:28 19,8 C 21,2 C 20,2 C 20,1 C 68 % 1021,6 hPa 0,0 l/m 3,4 km/h (1 Bft) NW 315 13,7 C 19,8 C 2,1 km/h (1 Bft)
15.08.2018 09:26 19,8 C 21,2 C 20,2 C 20,1 C 68 % 1021,3 hPa 0,0 l/m 4,0 km/h (1 Bft) N-NO 22 13,7 C 19,8 C 7,9 km/h (2 Bft)
15.08.2018 09:24 19,8 C 20,9 C 20,2 C 20,1 C 68 % 1021,3 hPa 0,0 l/m 3,4 km/h (1 Bft) N-NO 22 13,7 C 19,8 C 5,8 km/h (2 Bft)
15.08.2018 09:22 19,8 C 20,9 C 20,2 C 20,0 C 67 % 1021,3 hPa 0,0 l/m 3,5 km/h (1 Bft) W-NW 292 13,5 C 19,8 C 2,3 km/h (1 Bft)
15.08.2018 09:20 19,8 C 20,7 C 20,2 C 20,0 C 67 % 1021,3 hPa 0,0 l/m 4,2 km/h (1 Bft) O 90 13,5 C 19,8 C 6,2 km/h (2 Bft)
15.08.2018 09:18 19,8 C 20,8 C 20,2 C 20,0 C 67 % 1021,3 hPa 0,0 l/m 4,2 km/h (1 Bft) NW 315 13,5 C 19,8 C 9,7 km/h (2 Bft)
15.08.2018 09:16 19,8 C 21,2 C 20,2 C 20,0 C 67 % 1021,3 hPa 0,0 l/m 3,9 km/h (1 Bft) NW 315 13,5 C 19,8 C 8,7 km/h (2 Bft)
15.08.2018 09:14 19,8 C 21,2 C 20,2 C 19,9 C 67 % 1021,3 hPa 0,0 l/m 3,5 km/h (1 Bft) N-NW 337 13,5 C 19,8 C 3,7 km/h (1 Bft)
15.08.2018 09:12 19,8 C 21,1 C 20,2 C 19,9 C 67 % 1021,3 hPa 0,0 l/m 4,5 km/h (1 Bft) N-NO 22 13,5 C 19,8 C 5,6 km/h (1 Bft)
15.08.2018 09:10 19,8 C 20,8 C 20,2 C 19,9 C 67 % 1021,3 hPa 0,0 l/m 4,7 km/h (1 Bft) NW 315 13,5 C 19,8 C 10,6 km/h (2 Bft)
15.08.2018 09:08 19,8 C 20,5 C 20,2 C 19,9 C 67 % 1021,3 hPa 0,0 l/m 5,1 km/h (1 Bft) NW 315 13,5 C 19,8 C 10,2 km/h (2 Bft)
15.08.2018 09:06 19,8 C 20,5 C 20,2 C 19,9 C 67 % 1021,2 hPa 0,0 l/m 5,1 km/h (1 Bft) N-NO 22 13,5 C 19,8 C 9,5 km/h (2 Bft)
15.08.2018 09:04 19,8 C 20,6 C 20,2 C 19,8 C 67 % 1021,2 hPa 0,0 l/m 5,1 km/h (1 Bft) N-NO 22 13,5 C 19,8 C 3,1 km/h (1 Bft)
15.08.2018 09:02 19,8 C 20,8 C 20,2 C 19,9 C 67 % 1021,2 hPa 0,0 l/m 4,8 km/h (1 Bft) N-NO 22 13,5 C 19,8 C 7,0 km/h (2 Bft)
15.08.2018 09:00 19,8 C 20,9 C 20,2 C 19,8 C 67 % 1021,2 hPa 0,0 l/m 4,3 km/h (1 Bft) N-NO 22 13,5 C 19,8 C 6,4 km/h (2 Bft)
15.08.2018 08:58 19,8 C 21,3 C 20,2 C 19,8 C 67 % 1021,2 hPa 0,0 l/m 4,0 km/h (1 Bft) N-NO 22 13,5 C 19,8 C 13,5 km/h (3 Bft)
15.08.2018 08:56 19,7 C 21,9 C 20,2 C 19,7 C 67 % 1021,2 hPa 0,0 l/m 3,4 km/h (1 Bft) N-NW 337 13,4 C 19,7 C 7,0 km/h (2 Bft)
15.08.2018 08:54 19,7 C 21,9 C 20,2 C 19,6 C 67 % 1021,2 hPa 0,0 l/m 3,4 km/h (1 Bft) NO 45 13,4 C 19,7 C 6,6 km/h (2 Bft)
15.08.2018 08:52 19,7 C 21,7 C 20,2 C 19,6 C 68 % 1021,2 hPa 0,0 l/m 3,1 km/h (1 Bft) N-NO 22 13,6 C 19,7 C 2,1 km/h (1 Bft)
15.08.2018 08:50 19,7 C 21,2 C 20,2 C 19,6 C 68 % 1021,2 hPa 0,0 l/m 3,5 km/h (1 Bft) N-NO 22 13,6 C 19,7 C 6,2 km/h (2 Bft)
15.08.2018 08:48 19,6 C 20,7 C 20,2 C 19,5 C 67 % 1021,2 hPa 0,0 l/m 3,4 km/h (1 Bft) NW 315 13,3 C 19,6 C 2,3 km/h (1 Bft)
15.08.2018 08:46 19,5 C 20,4 C 20,2 C 19,5 C 68 % 1021,3 hPa 0,0 l/m 3,7 km/h (1 Bft) N 360 13,4 C 19,5 C 6,4 km/h (2 Bft)
15.08.2018 08:44 19,5 C 20,2 C 20,2 C 19,5 C 68 % 1021,3 hPa 0,0 l/m 3,9 km/h (1 Bft) NW 315 13,4 C 19,5 C 6,4 km/h (2 Bft)
15.08.2018 08:42 19,5 C 20,3 C 20,2 C 19,5 C 67 % 1021,3 hPa 0,0 l/m 4,2 km/h (1 Bft) NW 315 13,2 C 19,5 C 2,5 km/h (1 Bft)
15.08.2018 08:40 19,4 C 20,3 C 20,1 C 19,4 C 68 % 1021,3 hPa 0,0 l/m 4,5 km/h (1 Bft) N 360 13,3 C 19,4 C 7,1 km/h (2 Bft)
15.08.2018 08:38 19,4 C 20,2 C 20,1 C 19,4 C 68 % 1021,3 hPa 0,0 l/m 4,5 km/h (1 Bft) N-NO 22 13,3 C 19,4 C 5,4 km/h (1 Bft)
15.08.2018 08:36 19,4 C 20,0 C 20,1 C 19,4 C 68 % 1021,3 hPa 0,0 l/m 5,1 km/h (1 Bft) N-NW 337 13,3 C 19,4 C 7,7 km/h (2 Bft)
15.08.2018 08:34 19,4 C 19,7 C 20,1 C 19,4 C 68 % 1021,3 hPa 0,0 l/m 5,3 km/h (1 Bft) N 360 13,3 C 19,4 C 6,2 km/h (2 Bft)
15.08.2018 08:32 19,4 C 19,5 C 20,1 C 19,4 C 68 % 1021,3 hPa 0,0 l/m 5,5 km/h (1 Bft) N 360 13,3 C 19,4 C 10,8 km/h (2 Bft)
15.08.2018 08:30 19,4 C 19,5 C 20,1 C 19,3 C 67 % 1021,3 hPa 0,0 l/m 5,1 km/h (1 Bft) N-NO 22 13,1 C 19,4 C 12,7 km/h (3 Bft)
15.08.2018 08:28 19,4 C 19,5 C 20,1 C 19,3 C 67 % 1021,3 hPa 0,0 l/m 5,1 km/h (1 Bft) O 90 13,1 C 19,4 C 2,9 km/h (1 Bft)
15.08.2018 08:26 19,4 C 19,5 C 20,1 C 19,4 C 67 % 1021,2 hPa 0,0 l/m 5,5 km/h (1 Bft) N-NO 22 13,1 C 19,4 C 15,8 km/h (3 Bft)
15.08.2018 08:25 19,4 C 19,6 C 20,1 C 19,4 C 67 % 1021,2 hPa 0,0 l/m 5,1 km/h (1 Bft) N-NO 22 13,1 C 19,4 C 1,9 km/h (1 Bft)
15.08.2018 08:24 19,4 C 19,6 C 20,1 C 19,4 C 67 % 1021,2 hPa 0,0 l/m 5,1 km/h (1 Bft) N-NO 22 13,1 C 19,4 C 1,9 km/h (1 Bft)
15.08.2018 08:20 19,4 C 19,9 C 20,1 C 19,3 C 67 % 1021,2 hPa 0,0 l/m 5,8 km/h (2 Bft) N 360 13,1 C 19,4 C 5,0 km/h (1 Bft)
15.08.2018 08:18 19,4 C 19,9 C 20,1 C 19,3 C 67 % 1021,2 hPa 0,0 l/m 5,8 km/h (2 Bft) N 360 13,1 C 19,4 C 9,3 km/h (2 Bft)
15.08.2018 08:16 19,5 C 20,1 C 20,1 C 19,3 C 67 % 1021,2 hPa 0,0 l/m 6,0 km/h (2 Bft) N 360 13,2 C 19,5 C 7,9 km/h (2 Bft)
15.08.2018 08:14 19,5 C 20,1 C 20,1 C 19,3 C 67 % 1021,2 hPa 0,0 l/m 5,5 km/h (1 Bft) NO 45 13,2 C 19,5 C 13,5 km/h (3 Bft)
15.08.2018 08:12 19,5 C 20,2 C 20,1 C 19,3 C 67 % 1021,2 hPa 0,0 l/m 5,3 km/h (1 Bft) N 360 13,2 C 19,5 C 12,0 km/h (2 Bft)
15.08.2018 08:10 19,5 C 20,1 C 20,1 C 19,2 C 67 % 1021,2 hPa 0,0 l/m 4,8 km/h (1 Bft) NW 315 13,2 C 19,5 C 4,6 km/h (1 Bft)
15.08.2018 08:08 19,5 C 20,2 C 20,1 C 19,2 C 67 % 1021,2 hPa 0,0 l/m 5,1 km/h (1 Bft) N 360 13,2 C 19,5 C 13,3 km/h (3 Bft)
15.08.2018 08:06 19,4 C 20,3 C 20,1 C 19,2 C 67 % 1021,1 hPa 0,0 l/m 5,1 km/h (1 Bft) N-NO 22 13,1 C 19,4 C 9,7 km/h (2 Bft)
15.08.2018 08:04 19,4 C 20,1 C 20,1 C 19,1 C 67 % 1021,1 hPa 0,0 l/m 5,3 km/h (1 Bft) N 360 13,1 C 19,4 C 6,2 km/h (2 Bft)
15.08.2018 08:02 19,4 C 19,9 C 20,1 C 19,1 C 67 % 1021,1 hPa 0,0 l/m 5,1 km/h (1 Bft) O-NO 67 13,1 C 19,4 C 9,8 km/h (2 Bft)
15.08.2018 08:00 19,3 C 19,9 C 20,1 C 19,1 C 67 % 1021,1 hPa 0,0 l/m 4,8 km/h (1 Bft) NW 315 13,0 C 19,3 C 7,5 km/h (2 Bft)
15.08.2018 07:58 19,3 C 20,0 C 20,1 C 19,1 C 67 % 1021,1 hPa 0,0 l/m 5,1 km/h (1 Bft) N 360 13,0 C 19,3 C 9,1 km/h (2 Bft)
15.08.2018 07:56 19,3 C 20,1 C 20,1 C 19,0 C 68 % 1021,1 hPa 0,0 l/m 5,3 km/h (1 Bft) N-NO 22 13,2 C 19,3 C 13,7 km/h (3 Bft)
15.08.2018 07:54 19,2 C 19,9 C 20,2 C 19,0 C 68 % 1021,1 hPa 0,0 l/m 5,1 km/h (1 Bft) N-NO 22 13,1 C 19,2 C 7,1 km/h (2 Bft)
15.08.2018 07:52 19,2 C 19,6 C 20,2 C 19,0 C 68 % 1021,1 hPa 0,0 l/m 5,1 km/h (1 Bft) N 360 13,1 C 19,2 C 7,3 km/h (2 Bft)
15.08.2018 07:50 19,1 C 19,5 C 20,2 C 18,9 C 68 % 1021,1 hPa 0,0 l/m 5,5 km/h (1 Bft) W-NW 292 13,1 C 19,1 C 12,2 km/h (2 Bft)
15.08.2018 07:48 19,1 C 19,4 C 20,2 C 18,9 C 68 % 1021,1 hPa 0,0 l/m 5,6 km/h (1 Bft) W-NW 292 13,1 C 19,1 C 12,2 km/h (2 Bft)
15.08.2018 07:46 19,0 C 19,3 C 20,2 C 18,9 C 68 % 1020,9 hPa 0,0 l/m 5,5 km/h (1 Bft) N 360 13,0 C 19,0 C 8,7 km/h (2 Bft)
15.08.2018 07:44 19,0 C 19,2 C 20,2 C 18,9 C 68 % 1020,9 hPa 0,0 l/m 5,5 km/h (1 Bft) NO 45 13,0 C 19,0 C 3,7 km/h (1 Bft)
15.08.2018 07:42 19,0 C 18,9 C 20,2 C 18,9 C 68 % 1020,9 hPa 0,0 l/m 5,6 km/h (1 Bft) N-NO 22 13,0 C 19,0 C 9,3 km/h (2 Bft)
15.08.2018 07:40 19,0 C 18,8 C 20,2 C 18,9 C 68 % 1020,9 hPa 0,0 l/m 5,5 km/h (1 Bft) NW 315 13,0 C 19,0 C 6,0 km/h (2 Bft)
15.08.2018 07:38 18,9 C 18,9 C 20,2 C 18,8 C 68 % 1020,9 hPa 0,0 l/m 5,1 km/h (1 Bft) N 360 12,9 C 18,9 C 11,8 km/h (2 Bft)
15.08.2018 07:36 18,9 C 18,9 C 20,2 C 18,8 C 69 % 1020,9 hPa 0,0 l/m 5,0 km/h (1 Bft) N-NO 22 13,1 C 18,9 C 9,5 km/h (2 Bft)
15.08.2018 07:34 18,9 C 18,9 C 20,2 C 18,8 C 68 % 1020,9 hPa 0,0 l/m 4,3 km/h (1 Bft) N-NW 337 12,9 C 18,9 C 9,8 km/h (2 Bft)
15.08.2018 07:32 18,9 C 18,8 C 20,2 C 18,8 C 68 % 1020,9 hPa 0,0 l/m 3,5 km/h (1 Bft) N-NW 337 12,9 C 18,9 C 5,8 km/h (2 Bft)
15.08.2018 07:30 18,9 C 18,9 C 20,2 C 18,8 C 68 % 1020,9 hPa 0,0 l/m 3,1 km/h (1 Bft) N-NW 337 12,9 C 18,9 C 12,9 km/h (3 Bft)
15.08.2018 07:28 18,9 C 18,8 C 20,2 C 18,8 C 68 % 1020,9 hPa 0,0 l/m 2,4 km/h (1 Bft) N 360 12,9 C 18,9 C 7,5 km/h (2 Bft)
15.08.2018 07:26 18,9 C 18,7 C 20,2 C 18,7 C 68 % 1020,8 hPa 0,0 l/m 1,8 km/h (1 Bft) N 360 12,9 C 18,9 C 5,8 km/h (2 Bft)
15.08.2018 07:24 18,9 C 18,6 C 20,2 C 18,7 C 68 % 1020,8 hPa 0,0 l/m 1,4 km/h (1 Bft) N-NO 22 12,9 C 18,9 C 5,6 km/h (1 Bft)
15.08.2018 07:22 18,9 C 18,6 C 20,2 C 18,7 C 68 % 1020,8 hPa 0,0 l/m 1,6 km/h (1 Bft) NO 45 12,9 C 18,9 C 4,8 km/h (1 Bft)
15.08.2018 07:20 18,9 C 18,5 C 20,2 C 18,7 C 68 % 1020,8 hPa 0,0 l/m 1,6 km/h (1 Bft) O-NO 67 12,9 C 18,9 C 1,9 km/h (1 Bft)
15.08.2018 07:18 18,9 C 18,5 C 20,2 C 18,7 C 68 % 1020,8 hPa 0,0 l/m 2,1 km/h (1 Bft) NO 45 12,9 C 18,9 C 3,7 km/h (1 Bft)
15.08.2018 07:16 18,9 C 18,5 C 20,2 C 18,7 C 68 % 1020,8 hPa 0,0 l/m 2,4 km/h (1 Bft) NO 45 12,9 C 18,9 C 0,0 km/h (0 Bft)
15.08.2018 07:14 18,9 C 18,5 C 20,2 C 18,7 C 68 % 1020,8 hPa 0,0 l/m 2,7 km/h (1 Bft) N-NO 22 12,9 C 18,9 C 0,0 km/h (0 Bft)
15.08.2018 07:12 18,8 C 18,5 C 20,2 C 18,7 C 68 % 1020,8 hPa 0,0 l/m 3,1 km/h (1 Bft) W 270 12,8 C 18,8 C 9,7 km/h (2 Bft)
15.08.2018 07:10 18,8 C 18,4 C 20,2 C 18,7 C 68 % 1020,8 hPa 0,0 l/m 3,5 km/h (1 Bft) N 360 12,8 C 18,8 C 0,0 km/h (0 Bft)
15.08.2018 07:08 18,8 C 18,3 C 20,2 C 18,7 C 68 % 1020,8 hPa 0,0 l/m 3,7 km/h (1 Bft) N-NO 22 12,8 C 18,8 C 9,1 km/h (2 Bft)
15.08.2018 07:06 18,9 C 18,3 C 20,2 C 18,7 C 68 % 1020,9 hPa 0,0 l/m 3,4 km/h (1 Bft) N-NW 337 12,9 C 18,9 C 4,8 km/h (1 Bft)
15.08.2018 07:04 18,9 C 18,4 C 20,2 C 18,7 C 68 % 1020,9 hPa 0,0 l/m 3,2 km/h (1 Bft) W-NW 292 12,9 C 18,9 C 3,9 km/h (1 Bft)
15.08.2018 07:02 18,9 C 18,4 C 20,2 C 18,6 C 68 % 1020,9 hPa 0,0 l/m 3,2 km/h (1 Bft) N-NO 22 12,9 C 18,9 C 7,0 km/h (2 Bft)
15.08.2018 07:00 18,9 C 18,5 C 20,2 C 18,6 C 68 % 1020,9 hPa 0,0 l/m 2,9 km/h (1 Bft) NO 45 12,9 C 18,9 C 8,7 km/h (2 Bft)
15.08.2018 06:58 18,9 C 18,4 C 20,2 C 18,6 C 68 % 1020,9 hPa 0,0 l/m 2,3 km/h (1 Bft) N 360 12,9 C 18,9 C 5,0 km/h (1 Bft)
15.08.2018 06:56 18,8 C 18,4 C 20,2 C 18,6 C 68 % 1020,9 hPa 0,0 l/m 2,1 km/h (1 Bft) NW 315 12,8 C 18,8 C 0,0 km/h (0 Bft)
15.08.2018 06:54 18,8 C 18,3 C 20,2 C 18,6 C 68 % 1020,9 hPa 0,0 l/m 2,4 km/h (1 Bft) N-NO 22 12,8 C 18,8 C 6,6 km/h (2 Bft)
15.08.2018 06:52 18,8 C 18,4 C 20,2 C 18,6 C 68 % 1020,9 hPa 0,0 l/m 2,3 km/h (1 Bft) N-NO 22 12,8 C 18,8 C 4,4 km/h (1 Bft)
15.08.2018 06:50 18,8 C 18,4 C 20,2 C 18,6 C 68 % 1020,9 hPa 0,0 l/m 1,9 km/h (1 Bft) NO 45 12,8 C 18,8 C 5,4 km/h (1 Bft)
15.08.2018 06:48 18,8 C 18,1 C 20,2 C 18,5 C 68 % 1020,9 hPa 0,0 l/m 1,8 km/h (1 Bft) N-NO 22 12,8 C 18,8 C 5,0 km/h (1 Bft)
15.08.2018 06:46 18,7 C 18,1 C 20,2 C 18,5 C 68 % 1020,4 hPa 0,0 l/m 1,8 km/h (1 Bft) N 360 12,7 C 18,7 C 1,9 km/h (1 Bft)
15.08.2018 06:44 18,8 C 18,2 C 20,2 C 18,5 C 68 % 1020,4 hPa 0,0 l/m 1,4 km/h (1 Bft) N 360 12,8 C 18,8 C 3,3 km/h (1 Bft)
15.08.2018 06:42 18,8 C 18,1 C 20,2 C 18,5 C 68 % 1020,4 hPa 0,0 l/m 1,8 km/h (1 Bft) NW 315 12,8 C 18,8 C 4,1 km/h (1 Bft)
15.08.2018 06:40 18,8 C 18,1 C 20,2 C 18,5 C 68 % 1020,4 hPa 0,0 l/m 1,6 km/h (1 Bft) W-NW 292 12,8 C 18,8 C 4,4 km/h (1 Bft)
15.08.2018 06:38 18,8 C 18,1 C 20,2 C 18,5 C 68 % 1020,4 hPa 0,0 l/m 1,6 km/h (1 Bft) N-NO 22 12,8 C 18,8 C 4,4 km/h (1 Bft)
15.08.2018 06:36 18,8 C 18,2 C 20,2 C 18,5 C 68 % 1020,4 hPa 0,0 l/m 1,4 km/h (1 Bft) N 360 12,8 C 18,8 C 3,1 km/h (1 Bft)
15.08.2018 06:34 18,8 C 18,2 C 20,2 C 18,5 C 68 % 1020,4 hPa 0,0 l/m 1,4 km/h (1 Bft) N-NO 22 12,8 C 18,8 C 3,1 km/h (1 Bft)
15.08.2018 06:32 18,8 C 18,2 C 20,2 C 18,5 C 68 % 1020,4 hPa 0,0 l/m 1,6 km/h (1 Bft) NW 315 12,8 C 18,8 C 4,6 km/h (1 Bft)
15.08.2018 06:30 18,8 C 18,4 C 20,2 C 18,4 C 68 % 1020,4 hPa 0,0 l/m 1,6 km/h (1 Bft) N-NO 22 12,8 C 18,8 C 0,0 km/h (0 Bft)
15.08.2018 06:28 18,8 C 18,5 C 20,2 C 18,4 C 68 % 1020,4 hPa 0,0 l/m 2,3 km/h (1 Bft) NO 45 12,8 C 18,8 C 0,0 km/h (0 Bft)
15.08.2018 06:26 18,8 C 18,4 C 20,2 C 18,4 C 68 % 1020,4 hPa 0,0 l/m 2,7 km/h (1 Bft) NO 45 12,8 C 18,8 C 4,1 km/h (1 Bft)
15.08.2018 06:24 18,8 C 18,4 C 20,2 C 18,4 C 68 % 1020,4 hPa 0,0 l/m 2,9 km/h (1 Bft) NO 45 12,8 C 18,8 C 9,1 km/h (2 Bft)
15.08.2018 06:22 18,8 C 18,4 C 20,2 C 18,3 C 68 % 1020,4 hPa 0,0 l/m 3,1 km/h (1 Bft) N-NW 337 12,8 C 18,8 C 9,1 km/h (2 Bft)
15.08.2018 06:20 18,7 C 18,4 C 20,2 C 18,3 C 68 % 1020,4 hPa 0,0 l/m 3,9 km/h (1 Bft) NW 315 12,7 C 18,7 C 12,6 km/h (3 Bft)
15.08.2018 06:18 18,7 C 18,5 C 20,2 C 18,3 C 68 % 1020,4 hPa 0,0 l/m 3,9 km/h (1 Bft) N-NO 22 12,7 C 18,7 C 12,6 km/h (3 Bft)
15.08.2018 06:16 18,7 C 18,3 C 20,2 C 18,3 C 68 % 1020,4 hPa 0,0 l/m 4,2 km/h (1 Bft) N-NW 337 12,7 C 18,7 C 4,6 km/h (1 Bft)
15.08.2018 06:14 18,7 C 18,3 C 20,2 C 18,3 C 68 % 1020,4 hPa 0,0 l/m 4,3 km/h (1 Bft) N-NO 22 12,7 C 18,7 C 1,9 km/h (1 Bft)
15.08.2018 06:12 18,7 C 18,3 C 20,2 C 18,3 C 68 % 1020,4 hPa 0,0 l/m 5,1 km/h (1 Bft) N-NO 22 12,7 C 18,7 C 5,4 km/h (1 Bft)
15.08.2018 06:10 18,6 C 18,3 C 20,2 C 18,0 C 69 % 1020,4 hPa 0,0 l/m 4,0 km/h (1 Bft) N-NO 22 12,8 C 18,6 C 10,8 km/h (2 Bft)
15.08.2018 06:08 18,6 C 18,3 C 20,2 C 18,0 C 69 % 1020,4 hPa 0,0 l/m 4,0 km/h (1 Bft) N-NO 22 12,8 C 18,6 C 15,1 km/h (3 Bft)
15.08.2018 06:06 18,6 C 18,3 C 20,2 C 18,0 C 69 % 1020,2 hPa 0,0 l/m 4,0 km/h (1 Bft) N-NO 22 12,8 C 18,6 C 10,8 km/h (2 Bft)
15.08.2018 06:04 18,6 C 18,3 C 20,2 C 18,0 C 69 % 1020,2 hPa 0,0 l/m 4,0 km/h (1 Bft) N-NO 22 12,8 C 18,6 C 10,8 km/h (2 Bft)
15.08.2018 06:02 18,6 C 18,3 C 20,2 C 18,0 C 69 % 1020,2 hPa 0,0 l/m 4,0 km/h (1 Bft) N-NO 22 12,8 C 18,6 C 10,8 km/h (2 Bft)
15.08.2018 06:00 18,6 C 18,3 C 20,2 C 18,0 C 69 % 1020,2 hPa 0,0 l/m 3,9 km/h (1 Bft) N-NO 22 12,8 C 18,6 C 15,1 km/h (3 Bft)
15.08.2018 05:58 18,6 C 18,3 C 20,2 C 18,0 C 69 % 1020,2 hPa 0,0 l/m 3,2 km/h (1 Bft) N-NO 22 12,8 C 18,6 C 4,8 km/h (1 Bft)
15.08.2018 05:56 18,5 C 18,2 C 20,2 C 18,0 C 69 % 1020,2 hPa 0,0 l/m 3,2 km/h (1 Bft) W-NW 292 12,7 C 18,5 C 7,9 km/h (2 Bft)
15.08.2018 05:54 18,5 C 18,2 C 20,2 C 17,9 C 69 % 1020,2 hPa 0,0 l/m 3,7 km/h (1 Bft) NW 315 12,7 C 18,5 C 0,0 km/h (0 Bft)
15.08.2018 05:52 18,5 C 18,1 C 20,2 C 17,9 C 69 % 1020,2 hPa 0,0 l/m 4,3 km/h (1 Bft) N 360 12,7 C 18,5 C 0,0 km/h (0 Bft)
15.08.2018 05:50 18,5 C 18,2 C 20,2 C 17,9 C 69 % 1020,2 hPa 0,0 l/m 4,0 km/h (1 Bft) N-NO 22 12,7 C 18,5 C 9,7 km/h (2 Bft)
15.08.2018 05:48 18,3 C 18,2 C 20,2 C 17,8 C 69 % 1020,2 hPa 0,0 l/m 3,9 km/h (1 Bft) N-NO 22 12,5 C 18,3 C 9,7 km/h (2 Bft)
15.08.2018 05:46 18,3 C 18,2 C 20,2 C 17,7 C 69 % 1020,8 hPa 0,0 l/m 3,7 km/h (1 Bft) N-NO 22 12,5 C 18,3 C 7,7 km/h (2 Bft)
15.08.2018 05:44 18,3 C 17,9 C 20,2 C 17,6 C 70 % 1020,8 hPa 0,0 l/m 4,3 km/h (1 Bft) N-NO 22 12,7 C 18,3 C 7,7 km/h (2 Bft)
15.08.2018 05:42 18,3 C 17,6 C 20,2 C 17,6 C 70 % 1020,8 hPa 0,0 l/m 4,3 km/h (1 Bft) N 360 12,7 C 18,3 C 11,4 km/h (2 Bft)
15.08.2018 05:40 18,3 C 17,8 C 20,2 C 17,6 C 70 % 1020,8 hPa 0,0 l/m 4,5 km/h (1 Bft) O-NO 67 12,7 C 18,3 C 5,0 km/h (1 Bft)
15.08.2018 05:38 18,3 C 18,0 C 20,2 C 17,5 C 70 % 1020,8 hPa 0,0 l/m 5,1 km/h (1 Bft) NW 315 12,7 C 18,3 C 10,2 km/h (2 Bft)
15.08.2018 05:36 18,1 C 18,0 C 20,2 C 17,5 C 71 % 1020,8 hPa 0,0 l/m 5,1 km/h (1 Bft) N-NO 22 12,8 C 18,1 C 10,2 km/h (2 Bft)
15.08.2018 05:34 18,1 C 18,0 C 20,2 C 17,4 C 71 % 1020,8 hPa 0,0 l/m 4,5 km/h (1 Bft) N-NO 22 12,8 C 18,1 C 11,2 km/h (2 Bft)
15.08.2018 05:32 17,9 C 17,9 C 20,2 C 17,3 C 72 % 1020,8 hPa 0,0 l/m 3,9 km/h (1 Bft) N-NO 22 12,8 C 17,9 C 14,5 km/h (3 Bft)
15.08.2018 05:30 17,7 C 17,8 C 20,2 C 17,2 C 72 % 1020,8 hPa 0,0 l/m 3,1 km/h (1 Bft) NW 315 12,6 C 17,7 C 8,3 km/h (2 Bft)
15.08.2018 05:28 17,5 C 17,6 C 20,2 C 17,1 C 73 % 1020,8 hPa 0,0 l/m 3,1 km/h (1 Bft) N-NO 22 12,6 C 17,5 C 6,8 km/h (2 Bft)
15.08.2018 05:26 17,3 C 17,5 C 20,2 C 17,1 C 73 % 1019,9 hPa 0,0 l/m 2,6 km/h (1 Bft) N 360 12,4 C 17,3 C 6,6 km/h (2 Bft)
15.08.2018 05:24 17,2 C 17,7 C 20,2 C 17,0 C 74 % 1019,9 hPa 0,0 l/m 2,4 km/h (1 Bft) NO 45 12,5 C 17,2 C 6,6 km/h (2 Bft)
15.08.2018 05:22 17,0 C 17,4 C 20,2 C 16,9 C 74 % 1019,9 hPa 0,0 l/m 1,8 km/h (1 Bft) N-NO 22 12,3 C 17,0 C 2,3 km/h (1 Bft)
15.08.2018 05:20 16,7 C 17,3 C 20,2 C 16,8 C 74 % 1019,9 hPa 0,0 l/m 1,3 km/h (1 Bft) N 360 12,0 C 16,7 C 4,8 km/h (1 Bft)
15.08.2018 05:18 16,7 C 16,9 C 20,2 C 16,8 C 74 % 1019,9 hPa 0,0 l/m 1,0 km/h (0 Bft) SW 225 12,0 C 16,7 C 4,8 km/h (1 Bft)
15.08.2018 05:16 16,6 C 16,6 C 20,3 C 16,8 C 74 % 1019,9 hPa 0,0 l/m 0,5 km/h (0 Bft) NW 315 11,9 C 16,6 C 4,4 km/h (1 Bft)
15.08.2018 05:10 16,5 C 16,5 C 20,3 C 16,7 C 74 % 1019,9 hPa 0,0 l/m 0,2 km/h (0 Bft) W-NW 292 11,8 C 16,5 C 0,0 km/h (0 Bft)
15.08.2018 05:08 16,5 C 16,5 C 20,3 C 16,7 C 75 % 1019,9 hPa 0,0 l/m 0,3 km/h (0 Bft) N-NW 337 12,1 C 16,5 C 0,0 km/h (0 Bft)
15.08.2018 05:04 16,6 C 16,6 C 20,3 C 16,7 C 75 % 1019,6 hPa 0,0 l/m 0,8 km/h (0 Bft) NW 315 12,1 C 16,6 C 0,0 km/h (0 Bft)
15.08.2018 05:00 16,5 C 16,5 C 20,3 C 16,7 C 75 % 1019,6 hPa 0,0 l/m 1,0 km/h (0 Bft) W-NW 292 12,1 C 16,5 C 3,5 km/h (1 Bft)
15.08.2018 04:58 16,4 C 16,4 C 20,3 C 16,7 C 76 % 1019,6 hPa 0,0 l/m 0,8 km/h (0 Bft) W-NW 292 12,2 C 16,4 C 3,5 km/h (1 Bft)
15.08.2018 04:56 16,4 C 16,4 C 20,3 C 16,7 C 76 % 1019,6 hPa 0,0 l/m 0,8 km/h (0 Bft) W-NW 292 12,2 C 16,4 C 2,7 km/h (1 Bft)
15.08.2018 04:54 16,4 C 16,3 C 20,3 C 16,7 C 76 % 1019,6 hPa 0,0 l/m 0,6 km/h (0 Bft) W-NW 292 12,2 C 16,4 C 2,5 km/h (1 Bft)
15.08.2018 04:52 16,4 C 16,2 C 20,3 C 16,7 C 76 % 1019,6 hPa 0,0 l/m 0,8 km/h (0 Bft) W-NW 292 12,2 C 16,4 C 5,2 km/h (1 Bft)
15.08.2018 04:48 16,3 C 16,0 C 20,3 C 16,7 C 75 % 1019,6 hPa 0,0 l/m 1,0 km/h (0 Bft) W-NW 292 11,9 C 16,3 C 0,0 km/h (0 Bft)
15.08.2018 04:46 16,3 C 15,7 C 20,3 C 16,7 C 75 % 1019,7 hPa 0,0 l/m 1,0 km/h (0 Bft) W-NW 292 11,9 C 16,3 C 4,2 km/h (1 Bft)
15.08.2018 04:45 16,3 C 15,6 C 20,3 C 16,7 C 75 % 1019,7 hPa 0,0 l/m 0,8 km/h (0 Bft) W-NW 292 11,9 C 16,3 C 2,7 km/h (1 Bft)
15.08.2018 04:44 16,3 C 15,6 C 20,3 C 16,7 C 75 % 1019,7 hPa 0,0 l/m 0,8 km/h (0 Bft) W-NW 292 11,9 C 16,3 C 2,7 km/h (1 Bft)
15.08.2018 04:40 16,3 C 15,6 C 20,4 C 16,8 C 75 % 1019,7 hPa 0,0 l/m 0,6 km/h (0 Bft) W 270 11,9 C 16,3 C 0,0 km/h (0 Bft)
15.08.2018 04:38 16,4 C 15,7 C 20,4 C 16,8 C 75 % 1019,7 hPa 0,0 l/m 0,6 km/h (0 Bft) W-NW 292 12,0 C 16,4 C 0,0 km/h (0 Bft)
15.08.2018 04:36 16,4 C 15,4 C 20,4 C 16,8 C 75 % 1019,7 hPa 0,0 l/m 0,5 km/h (0 Bft) NW 315 12,0 C 16,4 C 0,0 km/h (0 Bft)
15.08.2018 04:34 16,5 C 15,4 C 20,4 C 16,8 C 75 % 1019,7 hPa 0,0 l/m 0,6 km/h (0 Bft) W-NW 292 12,1 C 16,5 C 3,5 km/h (1 Bft)
15.08.2018 04:32 16,5 C 15,4 C 20,4 C 16,9 C 75 % 1019,7 hPa 0,0 l/m 0,6 km/h (0 Bft) W-NW 292 12,1 C 16,5 C 3,5 km/h (1 Bft)
15.08.2018 04:30 16,5 C 15,4 C 20,4 C 16,9 C 75 % 1019,7 hPa 0,0 l/m 0,8 km/h (0 Bft) NW 315 12,1 C 16,5 C 2,9 km/h (1 Bft)
15.08.2018 04:28 16,6 C 15,2 C 20,4 C 16,9 C 74 % 1019,6 hPa 0,0 l/m 0,8 km/h (0 Bft) NW 315 11,9 C 16,6 C 0,0 km/h (0 Bft)
15.08.2018 04:26 16,6 C 15,3 C 20,4 C 16,9 C 74 % 1019,6 hPa 0,0 l/m 0,6 km/h (0 Bft) W-NW 292 11,9 C 16,6 C 0,0 km/h (0 Bft)
15.08.2018 04:24 16,6 C 15,1 C 20,4 C 17,0 C 74 % 1019,6 hPa 0,0 l/m 0,6 km/h (0 Bft) NW 315 11,9 C 16,6 C 2,5 km/h (1 Bft)
15.08.2018 04:22 16,7 C 15,1 C 20,4 C 17,0 C 74 % 1019,6 hPa 0,0 l/m 0,8 km/h (0 Bft) NW 315 12,0 C 16,7 C 2,3 km/h (1 Bft)
15.08.2018 04:20 16,7 C 15,3 C 20,4 C 17,1 C 74 % 1019,6 hPa 0,0 l/m 1,1 km/h (1 Bft) W-NW 292 12,0 C 16,7 C 3,1 km/h (1 Bft)
15.08.2018 04:18 16,8 C 15,4 C 20,4 C 17,1 C 74 % 1019,6 hPa 0,0 l/m 1,0 km/h (0 Bft) W-NW 292 12,1 C 16,8 C 0,0 km/h (0 Bft)
15.08.2018 04:16 16,8 C 15,3 C 20,4 C 17,1 C 74 % 1019,6 hPa 0,0 l/m 1,0 km/h (0 Bft) W-NW 292 12,1 C 16,8 C 0,0 km/h (0 Bft)
15.08.2018 04:14 16,8 C 15,3 C 20,4 C 17,1 C 74 % 1019,6 hPa 0,0 l/m 0,8 km/h (0 Bft) W-NW 292 12,1 C 16,8 C 4,6 km/h (1 Bft)
15.08.2018 04:12 16,8 C 15,4 C 20,4 C 17,1 C 74 % 1019,6 hPa 0,0 l/m 0,8 km/h (0 Bft) W-NW 292 12,1 C 16,8 C 4,6 km/h (1 Bft)
15.08.2018 04:10 16,8 C 15,5 C 20,4 C 17,2 C 73 % 1019,6 hPa 0,0 l/m 0,6 km/h (0 Bft) NW 315 11,9 C 16,8 C 3,5 km/h (1 Bft)
15.08.2018 04:08 17,0 C 15,3 C 20,5 C 17,2 C 73 % 1019,7 hPa 0,0 l/m 0,6 km/h (0 Bft) W-NW 292 12,1 C 17,0 C 0,0 km/h (0 Bft)
15.08.2018 04:06 17,0 C 15,5 C 20,5 C 17,3 C 73 % 1019,7 hPa 0,0 l/m 0,8 km/h (0 Bft) W-NW 292 12,1 C 17,0 C 0,0 km/h (0 Bft)
15.08.2018 04:04 17,0 C 15,5 C 20,5 C 17,3 C 73 % 1019,7 hPa 0,0 l/m 0,8 km/h (0 Bft) W-NW 292 12,1 C 17,0 C 0,0 km/h (0 Bft)
15.08.2018 04:02 17,0 C 15,5 C 20,5 C 17,3 C 73 % 1019,7 hPa 0,0 l/m 1,1 km/h (1 Bft) N 360 12,1 C 17,0 C 2,1 km/h (1 Bft)
15.08.2018 04:00 17,0 C 15,5 C 20,5 C 17,3 C 72 % 1019,7 hPa 0,0 l/m 1,1 km/h (1 Bft) N 360 11,9 C 17,0 C 2,1 km/h (1 Bft)
15.08.2018 03:58 17,0 C 15,6 C 20,5 C 17,4 C 72 % 1019,7 hPa 0,0 l/m 1,0 km/h (0 Bft) N 360 11,9 C 17,0 C 0,0 km/h (0 Bft)
15.08.2018 03:56 17,1 C 15,5 C 20,5 C 17,4 C 72 % 1019,7 hPa 0,0 l/m 1,0 km/h (0 Bft) W-NW 292 12,0 C 17,1 C 0,0 km/h (0 Bft)
15.08.2018 03:55 17,1 C 15,4 C 20,5 C 17,4 C 72 % 1019,7 hPa 0,0 l/m 1,1 km/h (1 Bft) W-NW 292 12,0 C 17,1 C 2,5 km/h (1 Bft)
15.08.2018 03:54 17,1 C 15,4 C 20,5 C 17,4 C 72 % 1019,7 hPa 0,0 l/m 1,1 km/h (1 Bft) W-NW 292 12,0 C 17,1 C 2,5 km/h (1 Bft)
15.08.2018 03:50 17,3 C 15,8 C 20,5 C 17,5 C 72 % 1019,7 hPa 0,0 l/m 1,0 km/h (0 Bft) NW 315 12,2 C 17,3 C 2,9 km/h (1 Bft)
15.08.2018 03:48 17,3 C 16,0 C 20,5 C 17,5 C 73 % 1019,4 hPa 0,0 l/m 0,8 km/h (0 Bft) W 270 12,4 C 17,3 C 0,0 km/h (0 Bft)
15.08.2018 03:46 17,3 C 15,8 C 20,5 C 17,6 C 72 % 1019,4 hPa 0,0 l/m 0,6 km/h (0 Bft) W-NW 292 12,2 C 17,3 C 2,1 km/h (1 Bft)
15.08.2018 03:44 17,4 C 15,7 C 20,5 C 17,6 C 72 % 1019,4 hPa 0,0 l/m 0,6 km/h (0 Bft) W-NW 292 12,3 C 17,4 C 2,5 km/h (1 Bft)
15.08.2018 03:42 17,4 C 15,8 C 20,5 C 17,6 C 72 % 1019,4 hPa 0,0 l/m 1,0 km/h (0 Bft) W 270 12,3 C 17,4 C 1,9 km/h (1 Bft)
15.08.2018 03:40 17,5 C 15,8 C 20,5 C 17,7 C 72 % 1019,4 hPa 0,0 l/m 1,0 km/h (0 Bft) W-NW 292 12,4 C 17,5 C 2,5 km/h (1 Bft)
15.08.2018 03:38 17,5 C 15,8 C 20,5 C 17,7 C 71 % 1019,4 hPa 0,0 l/m 1,0 km/h (0 Bft) W-NW 292 12,2 C 17,5 C 2,9 km/h (1 Bft)
15.08.2018 03:36 17,6 C 15,9 C 20,6 C 17,7 C 71 % 1019,4 hPa 0,0 l/m 1,0 km/h (0 Bft) W-NW 292 12,3 C 17,6 C 0,0 km/h (0 Bft)
15.08.2018 03:34 17,6 C 16,0 C 20,6 C 17,7 C 71 % 1019,4 hPa 0,0 l/m 1,0 km/h (0 Bft) W-NW 292 12,3 C 17,6 C 2,1 km/h (1 Bft)
15.08.2018 03:32 17,7 C 16,1 C 20,6 C 17,8 C 71 % 1019,4 hPa 0,0 l/m 1,0 km/h (0 Bft) W-NW 292 12,4 C 17,7 C 5,0 km/h (1 Bft)
15.08.2018 03:30 17,7 C 16,2 C 20,6 C 17,8 C 71 % 1019,4 hPa 0,0 l/m 0,6 km/h (0 Bft) W-NW 292 12,4 C 17,7 C 0,0 km/h (0 Bft)
15.08.2018 03:28 17,7 C 16,2 C 20,6 C 17,8 C 71 % 1019,2 hPa 0,0 l/m 0,6 km/h (0 Bft) NW 315 12,4 C 17,7 C 4,2 km/h (1 Bft)
15.08.2018 03:26 17,8 C 16,3 C 20,6 C 17,9 C 71 % 1019,2 hPa 0,0 l/m 0,5 km/h (0 Bft) W-NW 292 12,5 C 17,8 C 2,1 km/h (1 Bft)
15.08.2018 03:24 17,9 C 16,4 C 20,6 C 17,9 C 70 % 1019,2 hPa 0,0 l/m 0,3 km/h (0 Bft) W-NW 292 12,3 C 17,9 C 0,0 km/h (0 Bft)
15.08.2018 03:22 17,9 C 16,6 C 20,6 C 17,9 C 70 % 1019,2 hPa 0,0 l/m 0,3 km/h (0 Bft) W-NW 292 12,3 C 17,9 C 2,3 km/h (1 Bft)
15.08.2018 03:20 17,9 C 16,9 C 20,6 C 17,9 C 70 % 1019,2 hPa 0,0 l/m 0,5 km/h (0 Bft) N-NW 337 12,3 C 17,9 C 0,0 km/h (0 Bft)
15.08.2018 03:18 18,0 C 17,0 C 20,6 C 17,9 C 70 % 1019,2 hPa 0,0 l/m 0,5 km/h (0 Bft) N-NW 337 12,4 C 18,0 C 0,0 km/h (0 Bft)
15.08.2018 03:16 18,0 C 17,1 C 20,6 C 17,9 C 70 % 1019,2 hPa 0,0 l/m 0,5 km/h (0 Bft) NW 315 12,4 C 18,0 C 2,5 km/h (1 Bft)
15.08.2018 03:14 17,9 C 17,1 C 20,6 C 17,9 C 70 % 1019,2 hPa 0,0 l/m 0,3 km/h (0 Bft) W-NW 292 12,3 C 17,9 C 0,0 km/h (0 Bft)
15.08.2018 03:12 17,9 C 17,0 C 20,6 C 18,0 C 70 % 1019,2 hPa 0,0 l/m 0,3 km/h (0 Bft) W-NW 292 12,3 C 17,9 C 0,0 km/h (0 Bft)
15.08.2018 03:10 17,9 C 16,6 C 20,6 C 18,0 C 70 % 1019,2 hPa 0,0 l/m 0,3 km/h (0 Bft) W-NW 292 12,3 C 17,9 C 0,0 km/h (0 Bft)
15.08.2018 03:08 17,9 C 16,3 C 20,6 C 18,0 C 70 % 1019,3 hPa 0,0 l/m 0,5 km/h (0 Bft) NW 315 12,3 C 17,9 C 5,4 km/h (1 Bft)
15.08.2018 03:06 18,1 C 16,1 C 20,6 C 18,1 C 69 % 1019,3 hPa 0,0 l/m 0,5 km/h (0 Bft) NW 315 12,3 C 18,1 C 0,0 km/h (0 Bft)
15.08.2018 03:04 18,1 C 16,3 C 20,6 C 18,1 C 69 % 1019,3 hPa 0,0 l/m 1,0 km/h (0 Bft) N 360 12,3 C 18,1 C 0,0 km/h (0 Bft)
15.08.2018 03:02 18,1 C 16,3 C 20,6 C 18,1 C 69 % 1019,3 hPa 0,0 l/m 1,0 km/h (0 Bft) N 360 12,3 C 18,1 C 0,0 km/h (0 Bft)
15.08.2018 03:00 18,1 C 16,3 C 20,6 C 18,1 C 69 % 1019,3 hPa 0,0 l/m 1,0 km/h (0 Bft) N 360 12,3 C 18,1 C 0,0 km/h (0 Bft)
15.08.2018 02:58 18,0 C 16,3 C 20,6 C 18,1 C 69 % 1019,3 hPa 0,0 l/m 0,8 km/h (0 Bft) NW 315 12,2 C 18,0 C 3,7 km/h (1 Bft)
15.08.2018 02:56 18,0 C 15,7 C 20,7 C 18,2 C 69 % 1019,3 hPa 0,0 l/m 0,6 km/h (0 Bft) NW 315 12,2 C 18,0 C 3,9 km/h (1 Bft)
15.08.2018 02:54 18,0 C 15,9 C 20,7 C 18,2 C 68 % 1019,3 hPa 0,0 l/m 0,5 km/h (0 Bft) N-NO 22 12,0 C 18,0 C 0,0 km/h (0 Bft)
15.08.2018 02:52 18,2 C 15,7 C 20,7 C 18,2 C 68 % 1019,3 hPa 0,0 l/m 0,3 km/h (0 Bft) N-NO 22 12,2 C 18,2 C 0,0 km/h (0 Bft)
15.08.2018 02:50 18,2 C 15,9 C 20,7 C 18,3 C 68 % 1019,3 hPa 0,0 l/m 0,6 km/h (0 Bft) W-NW 292 12,2 C 18,2 C 0,0 km/h (0 Bft)
15.08.2018 02:48 18,2 C 16,0 C 20,7 C 18,3 C 68 % 1019,7 hPa 0,0 l/m 0,6 km/h (0 Bft) W-NW 292 12,2 C 18,2 C 0,0 km/h (0 Bft)
15.08.2018 02:46 18,3 C 16,2 C 20,7 C 18,3 C 67 % 1019,7 hPa 0,0 l/m 1,0 km/h (0 Bft) W-NW 292 12,1 C 18,3 C 0,0 km/h (0 Bft)
15.08.2018 02:42 18,3 C 16,0 C 20,7 C 18,3 C 67 % 1019,7 hPa 0,0 l/m 1,0 km/h (0 Bft) W-NW 292 12,1 C 18,3 C 4,8 km/h (1 Bft)
15.08.2018 02:40 18,3 C 16,1 C 20,7 C 18,4 C 67 % 1019,7 hPa 0,0 l/m 1,0 km/h (0 Bft) N 360 12,1 C 18,3 C 4,8 km/h (1 Bft)
15.08.2018 02:38 18,3 C 16,6 C 20,7 C 18,4 C 67 % 1019,7 hPa 0,0 l/m 0,8 km/h (0 Bft) NO 45 12,1 C 18,3 C 3,3 km/h (1 Bft)
15.08.2018 02:36 18,3 C 16,6 C 20,7 C 18,4 C 68 % 1019,7 hPa 0,0 l/m 0,5 km/h (0 Bft) O-NO 67 12,3 C 18,3 C 2,9 km/h (1 Bft)
15.08.2018 02:34 18,3 C 16,9 C 20,7 C 18,4 C 68 % 1019,7 hPa 0,0 l/m 0,3 km/h (0 Bft) NW 315 12,3 C 18,3 C 1,9 km/h (1 Bft)
15.08.2018 02:32 18,3 C 16,7 C 20,7 C 18,4 C 67 % 1019,7 hPa 0,0 l/m 0,3 km/h (0 Bft) W-NW 292 12,1 C 18,3 C 3,1 km/h (1 Bft)
15.08.2018 02:30 18,4 C 16,3 C 20,7 C 18,5 C 67 % 1019,7 hPa 0,0 l/m 0,5 km/h (0 Bft) NW 315 12,2 C 18,4 C 3,9 km/h (1 Bft)
15.08.2018 02:28 18,6 C 16,0 C 20,7 C 18,5 C 66 % 1019,4 hPa 0,0 l/m 0,3 km/h (0 Bft) NW 315 12,1 C 18,6 C 3,9 km/h (1 Bft)
15.08.2018 02:26 18,6 C 16,0 C 20,7 C 18,5 C 66 % 1019,4 hPa 0,0 l/m 0,2 km/h (0 Bft) NW 315 12,1 C 18,6 C 0,0 km/h (0 Bft)
15.08.2018 02:24 18,6 C 16,0 C 20,7 C 18,6 C 66 % 1019,4 hPa 0,0 l/m 1,0 km/h (0 Bft) W-NW 292 12,1 C 18,6 C 0,0 km/h (0 Bft)
15.08.2018 02:22 18,6 C 16,0 C 20,7 C 18,6 C 66 % 1019,4 hPa 0,0 l/m 1,4 km/h (1 Bft) O-NO 67 12,1 C 18,6 C 0,0 km/h (0 Bft)
15.08.2018 02:20 18,8 C 16,3 C 20,7 C 18,6 C 66 % 1019,4 hPa 0,0 l/m 1,6 km/h (1 Bft) N 360 12,3 C 18,8 C 0,0 km/h (0 Bft)
15.08.2018 02:18 18,8 C 16,5 C 20,7 C 18,7 C 66 % 1019,4 hPa 0,0 l/m 1,8 km/h (1 Bft) N 360 12,3 C 18,8 C 0,0 km/h (0 Bft)
15.08.2018 02:16 18,9 C 17,1 C 20,7 C 18,7 C 66 % 1019,4 hPa 0,0 l/m 2,1 km/h (1 Bft) N 360 12,4 C 18,9 C 2,9 km/h (1 Bft)
15.08.2018 02:14 18,8 C 17,1 C 20,7 C 18,7 C 66 % 1019,4 hPa 0,0 l/m 1,9 km/h (1 Bft) N 360 12,3 C 18,8 C 6,8 km/h (2 Bft)
15.08.2018 02:12 18,8 C 16,6 C 20,7 C 18,7 C 66 % 1019,4 hPa 0,0 l/m 1,3 km/h (1 Bft) W-NW 292 12,3 C 18,8 C 3,5 km/h (1 Bft)
15.08.2018 02:10 18,8 C 16,8 C 20,7 C 18,7 C 66 % 1019,4 hPa 0,0 l/m 1,1 km/h (1 Bft) NW 315 12,3 C 18,8 C 3,1 km/h (1 Bft)
15.08.2018 02:08 18,8 C 16,3 C 20,7 C 18,7 C 66 % 1019,4 hPa 0,0 l/m 1,3 km/h (1 Bft) N-NW 337 12,3 C 18,8 C 3,3 km/h (1 Bft)
15.08.2018 02:06 18,8 C 15,9 C 20,8 C 18,7 C 66 % 1019,4 hPa 0,0 l/m 1,1 km/h (1 Bft) NO 45 12,3 C 18,8 C 5,2 km/h (1 Bft)
15.08.2018 02:04 18,9 C 15,5 C 20,8 C 18,8 C 66 % 1019,4 hPa 0,0 l/m 1,1 km/h (1 Bft) NW 315 12,4 C 18,9 C 2,9 km/h (1 Bft)
15.08.2018 02:02 18,9 C 15,5 C 20,8 C 18,8 C 66 % 1019,4 hPa 0,0 l/m 1,0 km/h (0 Bft) NO 45 12,4 C 18,9 C 0,0 km/h (0 Bft)
15.08.2018 02:00 18,9 C 15,6 C 20,8 C 18,9 C 66 % 1019,4 hPa 0,0 l/m 1,0 km/h (0 Bft) NO 45 12,4 C 18,9 C 0,0 km/h (0 Bft)
15.08.2018 01:58 19,0 C 15,6 C 20,8 C 18,9 C 65 % 1019,4 hPa 0,0 l/m 1,1 km/h (1 Bft) O-SO 112 12,3 C 19,0 C 0,0 km/h (0 Bft)
15.08.2018 01:56 19,1 C 15,8 C 20,8 C 19,0 C 65 % 1019,4 hPa 0,0 l/m 1,1 km/h (1 Bft) N-NW 337 12,4 C 19,1 C 3,5 km/h (1 Bft)
15.08.2018 01:54 19,2 C 15,8 C 20,8 C 19,1 C 65 % 1019,4 hPa 0,0 l/m 1,0 km/h (0 Bft) N-NO 22 12,5 C 19,2 C 3,5 km/h (1 Bft)
15.08.2018 01:52 19,2 C 16,0 C 20,8 C 19,1 C 65 % 1019,4 hPa 0,0 l/m 1,4 km/h (1 Bft) W-NW 292 12,5 C 19,2 C 0,0 km/h (0 Bft)
15.08.2018 01:50 19,4 C 15,9 C 20,8 C 19,1 C 65 % 1019,4 hPa 0,0 l/m 2,3 km/h (1 Bft) W-NW 292 12,6 C 19,4 C 3,1 km/h (1 Bft)
15.08.2018 01:48 19,4 C 16,3 C 20,8 C 19,2 C 65 % 1019,4 hPa 0,0 l/m 2,1 km/h (1 Bft) NO 45 12,6 C 19,4 C 3,1 km/h (1 Bft)
15.08.2018 01:46 19,4 C 16,4 C 20,8 C 19,2 C 65 % 1019,4 hPa 0,0 l/m 2,7 km/h (1 Bft) N-NO 22 12,6 C 19,4 C 3,5 km/h (1 Bft)
15.08.2018 01:44 19,4 C 16,4 C 20,8 C 19,2 C 65 % 1019,4 hPa 0,0 l/m 3,1 km/h (1 Bft) NO 45 12,6 C 19,4 C 0,0 km/h (0 Bft)
15.08.2018 01:42 19,4 C 16,5 C 20,8 C 19,2 C 65 % 1019,4 hPa 0,0 l/m 3,5 km/h (1 Bft) NO 45 12,6 C 19,4 C 4,1 km/h (1 Bft)
15.08.2018 01:40 19,4 C 16,6 C 20,8 C 19,3 C 65 % 1019,4 hPa 0,0 l/m 2,9 km/h (1 Bft) W-NW 292 12,6 C 19,4 C 4,6 km/h (1 Bft)
15.08.2018 01:38 19,4 C 16,1 C 20,8 C 19,3 C 65 % 1019,4 hPa 0,0 l/m 2,7 km/h (1 Bft) O 90 12,6 C 19,4 C 1,9 km/h (1 Bft)
15.08.2018 01:36 19,5 C 16,2 C 20,8 C 19,3 C 65 % 1019,4 hPa 0,0 l/m 2,6 km/h (1 Bft) N 360 12,7 C 19,5 C 6,2 km/h (2 Bft)
15.08.2018 01:34 19,6 C 16,3 C 20,8 C 19,3 C 64 % 1019,4 hPa 0,0 l/m 1,9 km/h (1 Bft) NW 315 12,6 C 19,6 C 4,8 km/h (1 Bft)
15.08.2018 01:32 19,6 C 16,6 C 20,8 C 19,4 C 64 % 1019,4 hPa 0,0 l/m 1,3 km/h (1 Bft) N-NO 22 12,6 C 19,6 C 8,9 km/h (2 Bft)
15.08.2018 01:30 19,7 C 16,5 C 20,8 C 19,4 C 64 % 1019,4 hPa 0,0 l/m 1,0 km/h (0 Bft) N 360 12,7 C 19,7 C 3,7 km/h (1 Bft)
15.08.2018 01:28 19,7 C 17,1 C 20,8 C 19,4 C 64 % 1019,2 hPa 0,0 l/m 0,6 km/h (0 Bft) O-NO 67 12,7 C 19,7 C 4,1 km/h (1 Bft)
15.08.2018 01:26 19,8 C 17,1 C 20,7 C 19,5 C 64 % 1019,2 hPa 0,0 l/m 0,5 km/h (0 Bft) O-SO 112 12,8 C 19,8 C 0,0 km/h (0 Bft)
15.08.2018 01:24 19,8 C 17,4 C 20,7 C 19,5 C 64 % 1019,2 hPa 0,0 l/m 0,8 km/h (0 Bft) O-SO 112 12,8 C 19,8 C 3,1 km/h (1 Bft)
15.08.2018 01:22 19,8 C 17,4 C 20,7 C 19,5 C 64 % 1019,2 hPa 0,0 l/m 0,8 km/h (0 Bft) S-SW 202 12,8 C 19,8 C 3,1 km/h (1 Bft)
15.08.2018 01:20 19,9 C 17,2 C 20,8 C 19,6 C 64 % 1019,2 hPa 0,0 l/m 1,3 km/h (1 Bft) N-NO 22 12,9 C 19,9 C 0,0 km/h (0 Bft)
15.08.2018 01:18 19,9 C 17,4 C 20,8 C 19,6 C 64 % 1019,2 hPa 0,0 l/m 1,8 km/h (1 Bft) N-NO 22 12,9 C 19,9 C 0,0 km/h (0 Bft)
15.08.2018 01:16 20,0 C 17,7 C 20,8 C 19,7 C 63 % 1019,2 hPa 0,0 l/m 2,4 km/h (1 Bft) N-NO 22 12,7 C 20,0 C 2,5 km/h (1 Bft)
15.08.2018 01:14 20,0 C 17,5 C 20,8 C 19,7 C 63 % 1019,2 hPa 0,0 l/m 2,4 km/h (1 Bft) N-NO 22 12,7 C 20,0 C 3,5 km/h (1 Bft)
15.08.2018 01:10 20,1 C 17,9 C 20,8 C 19,7 C 63 % 1019,2 hPa 0,0 l/m 2,9 km/h (1 Bft) NO 45 12,8 C 20,1 C 4,2 km/h (1 Bft)
15.08.2018 01:08 20,1 C 18,4 C 20,8 C 19,7 C 63 % 1019,3 hPa 0,0 l/m 3,4 km/h (1 Bft) NW 315 12,8 C 20,1 C 3,9 km/h (1 Bft)
15.08.2018 01:06 20,1 C 18,4 C 20,8 C 19,7 C 63 % 1019,3 hPa 0,0 l/m 3,7 km/h (1 Bft) N 360 12,8 C 20,1 C 12,2 km/h (2 Bft)
15.08.2018 01:04 20,1 C 17,9 C 20,8 C 19,8 C 63 % 1019,3 hPa 0,0 l/m 3,9 km/h (1 Bft) NW 315 12,8 C 20,1 C 2,5 km/h (1 Bft)
15.08.2018 01:02 20,1 C 18,1 C 20,8 C 19,8 C 63 % 1019,3 hPa 0,0 l/m 4,7 km/h (1 Bft) N-NO 22 12,8 C 20,1 C 6,0 km/h (2 Bft)
15.08.2018 01:00 20,2 C 18,3 C 20,8 C 19,8 C 63 % 1019,3 hPa 0,0 l/m 4,5 km/h (1 Bft) W-NW 292 12,9 C 20,2 C 3,9 km/h (1 Bft)
15.08.2018 00:58 20,2 C 19,0 C 20,8 C 19,8 C 63 % 1019,3 hPa 0,0 l/m 4,7 km/h (1 Bft) N-NO 22 12,9 C 20,2 C 14,5 km/h (3 Bft)
15.08.2018 00:56 20,1 C 18,8 C 20,8 C 19,8 C 63 % 1019,3 hPa 0,0 l/m 4,8 km/h (1 Bft) N-NO 22 12,8 C 20,1 C 6,4 km/h (2 Bft)
15.08.2018 00:54 20,1 C 18,7 C 20,8 C 19,8 C 63 % 1019,3 hPa 0,0 l/m 4,3 km/h (1 Bft) O 90 12,8 C 20,1 C 5,4 km/h (1 Bft)
15.08.2018 00:52 20,1 C 18,4 C 20,8 C 19,8 C 63 % 1019,3 hPa 0,0 l/m 4,0 km/h (1 Bft) W-NW 292 12,8 C 20,1 C 9,1 km/h (2 Bft)
15.08.2018 00:50 20,1 C 18,6 C 20,8 C 19,8 C 63 % 1019,3 hPa 0,0 l/m 3,7 km/h (1 Bft) N-NO 22 12,8 C 20,1 C 2,5 km/h (1 Bft)
15.08.2018 00:48 20,2 C 18,7 C 20,8 C 19,8 C 63 % 1019,1 hPa 0,0 l/m 4,0 km/h (1 Bft) N 360 12,9 C 20,2 C 8,3 km/h (2 Bft)
15.08.2018 00:46 20,2 C 19,0 C 20,8 C 19,8 C 63 % 1019,1 hPa 0,0 l/m 3,1 km/h (1 Bft) N-NO 22 12,9 C 20,2 C 5,8 km/h (2 Bft)
15.08.2018 00:44 20,2 C 18,4 C 20,8 C 19,8 C 63 % 1019,1 hPa 0,0 l/m 3,2 km/h (1 Bft) NW 315 12,9 C 20,2 C 4,2 km/h (1 Bft)
15.08.2018 00:42 20,2 C 18,4 C 20,8 C 19,9 C 63 % 1019,1 hPa 0,0 l/m 3,5 km/h (1 Bft) NW 315 12,9 C 20,2 C 4,1 km/h (1 Bft)
15.08.2018 00:40 20,2 C 18,2 C 20,8 C 19,8 C 63 % 1019,1 hPa 0,0 l/m 3,7 km/h (1 Bft) N 360 12,9 C 20,2 C 4,4 km/h (1 Bft)
15.08.2018 00:38 20,2 C 18,4 C 20,8 C 19,9 C 63 % 1019,1 hPa 0,0 l/m 3,4 km/h (1 Bft) N-NO 22 12,9 C 20,2 C 7,9 km/h (2 Bft)
15.08.2018 00:36 20,2 C 18,6 C 20,8 C 19,8 C 63 % 1019,1 hPa 0,0 l/m 3,5 km/h (1 Bft) N-NW 337 12,9 C 20,2 C 8,5 km/h (2 Bft)
15.08.2018 00:34 20,2 C 18,6 C 20,8 C 19,8 C 64 % 1019,1 hPa 0,0 l/m 3,5 km/h (1 Bft) N 360 13,2 C 20,2 C 8,5 km/h (2 Bft)
15.08.2018 00:30 20,2 C 18,8 C 20,9 C 19,8 C 64 % 1019,1 hPa 0,0 l/m 3,5 km/h (1 Bft) N 360 13,2 C 20,2 C 3,1 km/h (1 Bft)
15.08.2018 00:28 20,2 C 19,1 C 20,9 C 19,8 C 64 % 1018,9 hPa 0,0 l/m 4,2 km/h (1 Bft) N 360 13,2 C 20,2 C 5,8 km/h (2 Bft)
15.08.2018 00:26 20,2 C 18,8 C 20,9 C 19,8 C 64 % 1018,9 hPa 0,0 l/m 4,8 km/h (1 Bft) N 360 13,2 C 20,2 C 8,3 km/h (2 Bft)
15.08.2018 00:24 20,2 C 18,9 C 20,9 C 19,8 C 64 % 1018,9 hPa 0,0 l/m 5,0 km/h (1 Bft) S-SW 202 13,2 C 20,2 C 4,2 km/h (1 Bft)
15.08.2018 00:22 20,2 C 18,6 C 20,9 C 19,8 C 64 % 1018,9 hPa 0,0 l/m 5,3 km/h (1 Bft) N-NO 22 13,2 C 20,2 C 6,8 km/h (2 Bft)
15.08.2018 00:20 20,2 C 18,4 C 20,9 C 19,9 C 64 % 1018,9 hPa 0,0 l/m 6,0 km/h (2 Bft) NW 315 13,2 C 20,2 C 6,6 km/h (2 Bft)
15.08.2018 00:18 20,2 C 18,6 C 20,9 C 19,8 C 64 % 1018,9 hPa 0,0 l/m 6,4 km/h (2 Bft) NO 45 13,2 C 20,2 C 12,7 km/h (3 Bft)
15.08.2018 00:16 20,2 C 18,4 C 20,9 C 19,8 C 64 % 1018,9 hPa 0,0 l/m 6,1 km/h (2 Bft) N-NO 22 13,2 C 20,2 C 5,8 km/h (2 Bft)
15.08.2018 00:14 20,2 C 18,4 C 20,9 C 19,9 C 64 % 1018,9 hPa 0,0 l/m 5,3 km/h (1 Bft) N 360 13,2 C 20,2 C 11,6 km/h (2 Bft)
15.08.2018 00:12 20,2 C 18,8 C 20,9 C 19,8 C 64 % 1018,9 hPa 0,0 l/m 5,5 km/h (1 Bft) N-NO 22 13,2 C 20,2 C 5,2 km/h (1 Bft)
15.08.2018 00:10 20,3 C 18,6 C 20,9 C 19,9 C 64 % 1018,9 hPa 0,0 l/m 4,7 km/h (1 Bft) W-NW 292 13,3 C 20,3 C 3,3 km/h (1 Bft)
15.08.2018 00:08 20,3 C 18,6 C 20,9 C 19,9 C 64 % 1018,7 hPa 0,0 l/m 4,7 km/h (1 Bft) W-NW 292 13,3 C 20,3 C 3,3 km/h (1 Bft)
15.08.2018 00:06 20,3 C 18,6 C 20,9 C 19,9 C 64 % 1018,7 hPa 0,0 l/m 4,7 km/h (1 Bft) W-NW 292 13,3 C 20,3 C 3,3 km/h (1 Bft)
15.08.2018 00:04 20,3 C 18,6 C 20,9 C 19,9 C 64 % 1018,7 hPa 0,0 l/m 4,7 km/h (1 Bft) W-NW 292 13,3 C 20,3 C 3,3 km/h (1 Bft)
15.08.2018 00:02 20,3 C 18,6 C 20,9 C 19,9 C 64 % 1018,7 hPa 0,0 l/m 4,7 km/h (1 Bft) W-NW 292 13,3 C 20,3 C 3,3 km/h (1 Bft)
15.08.2018 00:00 20,3 C 18,6 C 20,9 C 19,9 C 64 % 1018,7 hPa 0,0 l/m 4,8 km/h (1 Bft) NW 315 13,3 C 20,3 C 8,1 km/h (2 Bft)
_ Min-Zeit 04:40 04:22 07:56 04:44 11:54 00:00 - 02:26 - - 05:10 04:40 01:18
Minimum _ 16,3 C 15,1 C 20,1 C 16,7 C 60 % 1018,7 hPa - 0,2 km/h (0 Bft) - - 11,8 C 16,3 C 0,0 km/h (0 Bft)
_ Max-Zeit 11:46 11:42 12:18 12:00 04:52 09:28 00:00 00:18 - - 11:46 11:46 10:48
Maximum _ 22,6 C 32,0 C 21,0 C 23,4 C 76 % 1021,6 hPa 0,0 l/m 6,4 km/h
NO (2 Bft)
- - 14,9 C 22,6 C 24,5 km/h
SW (4 Bft)
Durchschnitt _ 19,3 C 19,3 C 20,5 C 19,4 C 67 % 1020,4 hPa #0,0 l/m 3,0 km/h (1 Bft) N-NO - 13,0 C 19,3 C 5,3 km/h (1 Bft)